ARIANE 5 R/B, 54745

Orbit data source: Space-Track

ARIANE 5 R/B, 54745 is space debris in HEO originally from a launch on Tue, 13 Dec 2022 UTC launched from the French Guiana (FRGUI). Debris objects in space refer to the collection of defunct objects orbiting the Earth. Examples of debris include non-operational satellites, rocket bodies, and fragments generated from explosions, collisions, or faulty payload assembly.

Loading next visibility...
Identifier
54745, 2022-170E
Orbit
HEO
Country
Flag of FRFR
Related business
Manufacturer
ArianeGroup
Mission
Spacecraft
Bus & Motor
ESC-A, Unknown motor
Mass
~5,000 kg wet, ~5,000 kg dry
Launch date (UTC)
2022-12-13 (3 years ago)
Launch vehicle
Unknown
Launch site
French Guiana (FRGUI)
Object type
Payload
Rocket body
Debris
Shape & HBR
Cyl + 1 Nozzle, 3.5 m
Radar Cross Section
41.627 m², Large (>1 m²)

Expand to show TLE details & history
Last TLE update: 6 hours ago

TLE from 6 hours ago
0 ARIANE 5 R/B
1 54745U 22170E   26123.60209155  .00024352  84815-6  11870-2 0  9996
2 54745   6.3057 337.0532 6848983 287.3599  12.4086  2.88289296 31829
Epoch: 2026-05-03T14:27Z
TLE epoch observation values (Epoch: 2026-05-03T14:27:00.709Z)
Latitude
Longitude
-101.43312°
Altitude
2,799.217 km
Speed
8.231 km/s
True Right ascension
22h 27m 17s
True Declination
0° 00' 00"
Sunlit
Object was in daylight at epoch
Visualization orbit readout
Latitude
Unknown
Longitude
Unknown
Altitude
Unknown
Speed
Unknown
Apparent Right ascension
Unknown
Apparent Declination
Unknown
Sunlit
N/A
Visualization observer readout
Local Sidereal Time
04:03:23
Azimuth
Unknown
Elevation
Unknown
Doppler factor
Unknown
Orbital elements
Apogee altitude
28,767.258 km
Perigee altitude
194.588 km
Semi-major axis
20,859.06 km
Eccentricity
0.6849
Inclination
6.3057°
RAAN
337.0532°
Arg. of periapsis
287.3599°
True anomaly
71.87547°
Mean anomaly
12.4086°
Eccentric anomaly
34.81009°
Mean motion
0.72045 °/min
Orbital period
499.69 mins
BSTAR
0.001187
Loading maneuver chart data...
Computing Atmospheric mass density...
Loading historical data...
Loading historical data...
Loading historical data...
Loading historical data...
Loading historical data...
Loading historical data...
Loading historical data...
Other satellites on launch #170 in the year 2022 (2022-12-13 UTC)

Documentation

Showing up to 5 results
|